This is the latest recevied weather packets stored in our database for station/object KA9CBS. If no packets are shown the sender has not sent any weather packets the latest 10 day(s).
| Time | Temp. | Humidity | Pressure | Rain* | Wind** | Luminosity | Snow |
|---|---|---|---|---|---|---|---|
| 1777645090 | 11.67° C | 56% | 1019.3 hPa | 0 mm | - | 451 W/m² | - |
| 1777644786 | 11.11° C | 61% | 1019.3 hPa | 0 mm | - | 401 W/m² | - |
| 1777644485 | 11.11° C | 58% | 1019.4 hPa | 0 mm | - | 348 W/m² | - |
| 1777644181 | 11.11° C | 59% | 1019.2 hPa | 0 mm | - | 309 W/m² | - |
| 1777643877 | 10.56° C | 58% | 1019.3 hPa | 0 mm | - | 327 W/m² | - |
| 1777643575 | 10.56° C | 60% | 1019.3 hPa | 0 mm | - | 311 W/m² | - |
| 1777643271 | 10.56° C | 60% | 1019 hPa | 0 mm | - | 301 W/m² | - |
| 1777642968 | 10.56° C | 60% | 1018.9 hPa | 0 mm | - | 274 W/m² | - |
| 1777642664 | 10.56° C | 60% | 1018.9 hPa | 0 mm | - | 266 W/m² | - |
| 1777642361 | 10.56° C | 58% | 1019 hPa | 0 mm | - | 256 W/m² | - |
| 1777642057 | 10.56° C | 62% | 1019 hPa | 0 mm | - | 241 W/m² | - |
| 1777641754 | 10.56° C | 60% | 1018.9 hPa | 0 mm | - | 223 W/m² | - |
| 1777641448 | 10° C | 62% | 1018.9 hPa | 0 mm | - | 206 W/m² | - |
| 1777641144 | 10° C | 64% | 1019 hPa | 0 mm | - | 187 W/m² | - |
| 1777640840 | 10° C | 66% | 1018.8 hPa | 0 mm | - | 170 W/m² | - |
| 1777640538 | 10° C | 67% | 1019 hPa | 0 mm | - | 158 W/m² | - |
| 1777640234 | 10° C | 68% | 1019 hPa | 0 mm | - | 142 W/m² | - |
| 1777639931 | 9.44° C | 68% | 1018.9 hPa | 0 mm | - | 125 W/m² | - |
| 1777639628 | 9.44° C | 69% | 1019.2 hPa | 0 mm | - | 79 W/m² | - |
| 1777639325 | 9.44° C | 71% | 1019 hPa | 0 mm | - | 60 W/m² | - |
| 1777639021 | 9.44° C | 72% | 1018.9 hPa | 0 mm | - | 58 W/m² | - |
| 1777638717 | 9.44° C | 74% | 1018.9 hPa | 0 mm | - | 55 W/m² | - |
| 1777638413 | 8.89° C | 75% | 1018.8 hPa | 0 mm | - | 49 W/m² | - |
| 1777638110 | 8.89° C | 75% | 1018.7 hPa | 0 mm | - | 40 W/m² | - |
| 1777637806 | 8.89° C | 77% | 1018.7 hPa | 0 mm | - | 39 W/m² | - |
* Rain latest hour (hover to see other rain measurements)
** Current wind speed in m/s (hover to see current wind gust speed)